Location: *
(35.8942°N, 23.3025°E)
Time: 00:27:52
(UTC+00:00)

Daily predictions for brighter satellites

Satellite Brightness Start Highest point End
(mag) Time Altitude Azimuth Time Altitude Azimuth Time Altitude Azimuth
Cosmos 2237 Rocket 3.8 01:07:56 30° E 01:07:56 30° E 01:12:13 10° NE
CZ-2C R/B 4.3 01:15:31 10° NE 01:19:52 27° E 01:20:29 26° ESE
Cosmos 2333 Rocket 4.0 01:25:50 23° N 01:25:50 23° N 01:28:06 10° N
Cosmos 1655 Rocket 4.3 01:31:25 10° N 01:37:34 61° E 01:40:48 29° SSE
CZ-4C R/B 3.6 01:40:22 24° ESE 01:41:02 25° ESE 01:45:11 10° NE
ALOS 4.0 01:38:48 10° NE 01:42:50 28° E 01:44:31 23° SE
ARIANE 5 R/B 2.9 01:44:25 10° NNE 01:48:23 55° NNE 01:48:23 55° NNE
SL-08 R/B 3.9 01:49:31 52° E 01:49:43 52° ENE 01:54:12 10° N
Cosmos 2219 Rocket 3.8 01:53:02 22° NNW 01:53:02 22° NNW 01:55:35 10° N
Cosmos 1331 Rocket 4.2 01:51:46 67° NE 01:51:46 67° NE 01:56:15 10° NNE
ADEOS II 4.5 01:47:51 10° NNW 01:48:05 11° NNW 01:48:05 11° NNW
FENGYUN 3A 4.4 01:51:25 10° NNE 01:56:38 49° E 01:59:27 26° SSE
Cosmos 1328 Rocket 4.1 02:02:04 55° E 02:02:11 56° E 02:06:26 10° NNE
Cosmos 1666 Rocket 4.0 01:59:00 10° N 02:03:16 58° E 02:03:39 55° ESE
Cosmos 2266 Rocket 3.8 01:57:50 10° N 02:03:59 88° W 02:08:34 18° S
Molniya-1 4.4 02:10:04 60° SW 02:11:05 79° NW 02:23:03 10° NNE
NOSS 0 Rocket 4.0 02:11:11 54° WNW 02:11:30 54° WNW 02:17:36 10° NNE
Cosmos 2278 Rocket 2.4 02:07:37 10° NNW 02:13:18 71° ENE 02:18:56 10° SSE
SL-16 R/B 3.5 02:09:34 10° S 02:14:44 38° ESE 02:19:55 10° NE
Cosmos 44 4.0 02:15:59 45° NW 02:15:59 45° NW 02:20:57 10° NNE
Spot 4 Rocket 3.9 02:16:26 10° N 02:21:36 82° WNW 02:23:16 44° SSW
Cosmos 1151 Rocket 3.5 02:26:05 44° NW 02:26:05 44° NW 02:29:29 10° N
COSMOS 2428 4.3 02:26:57 19° NW 02:26:57 19° NW 02:30:07 10° N
Cosmos 1666 3.0 02:24:43 10° N 02:28:28 63° E 02:32:14 10° SSE
GPS 2-04 Rocket1 2.6 02:31:55 66° S 02:32:04 67° SSE 02:36:02 10° E
CZ-2D R/B 4.4 02:29:38 10° N 02:32:50 34° NW 02:32:50 34° NW
Cosmos 2285 Rocket 4.1 02:31:47 39° WSW 02:33:45 52° WNW 02:39:54 10° N
SL-24 R/B - RUBIN 2 4.4 02:32:19 24° SSW 02:36:20 84° ESE 02:42:12 10° NNE
Cosmos 1980 4.3 02:40:22 34° W 02:41:21 36° WNW 02:46:32 10° N
MOS 1 Rocket 3.2 02:37:43 10° S 02:42:20 55° W 02:46:43 10° NNW
X-37B 1.0 02:45:58 46° S 02:46:27 52° SE 02:49:33 10° ENE
Cosmos 1633 Rocket 3.2 02:42:53 10° NNW 02:47:10 50° W 02:51:26 10° SSW
CZ-4B R/B 4.2 02:45:23 10° N 02:50:00 34° WNW 02:51:18 30° W
Cosmos 1515 Rocket 3.4 02:46:22 14° SSW 02:50:02 75° W 02:54:23 10° N
Cosmos 2237 Rocket 3.0 02:49:49 28° W 02:51:14 32° WNW 02:56:19 10° N
Meteor 1-27 Rocket 4.2 02:51:00 10° S 02:56:45 65° E 03:02:36 10° NNE
CZ-2C R/B 3.3 02:53:28 10° N 02:58:01 32° WNW 02:59:51 25° WSW
METEOR-M 4.2 03:02:48 10° N 03:08:03 56° WNW 03:13:14 10° SSW
Aureole 1 Rocket 3.0 03:06:25 10° NNW 03:10:40 46° WSW 03:14:01 10° S
SAR-Lupe-3 4.4 03:08:52 10° N 03:12:29 77° WNW 03:16:03 10° SSW
Envisat 4.1 03:10:27 10° NNE 03:15:21 47° E 03:20:13 10° S
ALOS 3.4 03:16:19 10° NNW 03:20:04 24° WNW 03:23:00 14° WSW
Gbstr 26 Del rocket 4.3 03:12:50 10° NW 03:20:25 78° NE 03:26:39 10° SE
CZ-2C R/B 4.1 03:17:57 10° NNW 03:20:58 21° WNW 03:22:42 16° WSW
CZ-4C R/B 2.8 03:25:35 14° WSW 03:29:10 33° NW 03:34:11 10° NNE
Cosmos 1515 3.9 03:25:28 10° S 03:29:14 73° E 03:33:02 10° N
GENESIS II 4.2 03:27:35 10° NNW 03:31:30 89° ENE 03:35:26 10° SSE
Cosmos 44 Rocket 4.2 03:26:41 10° SSW 03:31:44 56° ESE 03:36:50 10° NE
Geosat 4.1 03:29:28 10° S 03:34:23 55° WSW 03:39:19 10° NW
YAOGAN 6 2.6 03:30:57 10° NNE 03:34:28 80° E 03:37:55 10° S
Cosmos 1869 Rocket 3.7 03:33:25 10° N 03:37:51 83° E 03:42:17 10° S
Cosmos 1386 Rocket 4.5 03:32:11 10° N 03:38:17 88° W 03:44:28 10° S
Cosmos 1933 Rocket 4.1 03:34:43 10° NNW 03:38:47 37° W 03:42:51 10° SSW
Cosmos 1743 3.1 03:35:16 10° N 03:39:09 71° E 03:42:59 10° SSE
Cosmos 1745 Rocket 4.0 03:33:23 10° N 03:39:34 86° W 03:45:41 10° S
Cosmos 1484 Rocket 4.2 03:37:26 10° NNW 03:40:03 18° WNW 03:42:39 10° WSW
Cosmos 1943 4.3 03:36:56 10° S 03:42:24 51° ESE 03:47:54 10° NNE
Okean 1 3.7 03:39:28 10° S 03:43:22 67° E 03:47:18 10° NNE
Cosmos 1553 Rocket 4.4 03:38:33 10° SSW 03:44:14 40° WNW 03:50:05 10° N
SL-8 R/B 4.4 03:42:28 10° W 03:47:02 41° NNW 03:51:37 10° NE
USA 267 3.6 03:41:51 10° NE 03:48:23 72° SE 03:54:54 10° SW
Cosmos 1603 4.5 03:43:56 10° S 03:49:24 58° ESE 03:54:55 10° NNE
H-2A ROCKET BODY 3.0 03:44:03 10° WSW 03:51:01 29° S 03:53:43 10° ESE
